sat.trackr.live / text

‹ back to catalog

GSAT0224 (GALILEO 28)

NORAD 49810 · 2021-116B

PAYLOAD ACTIVE UNKNOWN

§ Identity

Operator
Country
ESA
Launch date
2021-12-05
Launch site
FRGUI
Launch vehicle
Mass (kg)
RCS (m²)

Purposes: earth_obs, nav

External: N2YO · Heavens-Above · Gunter

§ Orbital elements

Epoch: 2026-09-19T06:07:21.032256Z

Period
844.69 min
Inclination
57.1231°
Eccentricity
0.0003390
Mean motion
1.70476672 rev/d
Perigee alt
23,211.8 km
Apogee alt
23,231.9 km
Semi-major
29,600.0 km
B*
0.0000e+0
RAAN
339.1333°
Arg perigee
223.4355°
Mean anomaly
140.7508°
Rev number
2,981

§ Raw data

GSAT0224 (GALILEO 28)1 49810U 21116B   26262.25510454 -.00000091  00000+0  00000+0 0  99962 49810  57.1231 339.1333 0003390 223.4355 140.7508  1.70476672 29812

JSON: /api/v1/satellites/49810 · /tle

For live sub-satellite position, see the globe view (requires WebGL).

§ Visibility from observer

Set your observer location to see the next 7 days of passes ≥ 10°. The values pass through the URL so the page stays shareable.

No JS? Fill the form by hand. The geolocation button needs JavaScript.